User: anonymous   Login
Location: Canyam�s
(41.5996°N, 2.4450°E)
Time: 11:09:57
(UTC+00:00)
Language:

STARLINK-1261 - Orbit

View from above orbital plane
View from above orbital plane
View from above satellite
View from above satellite

Ground track
Ground track

The orbit data is extracted from the following two-line orbital elements,

1 45571U 20025AS  21163.04974826  .00000037  00000-0  21387-4 0  9999
2 45571  53.0572 290.2568 0001290 101.1286 258.9848 15.06394942 63915
Epoch (UTC): 12 June 2021 01:11:38
Eccentricity: 0.0001290
inclination: 53.0572°
perigee height: 546 km
apogee height: 548 km
right ascension of ascending node: 290.2568°
argument of perigee: 101.1286°
revolutions per day: 15.06394942
mean anomaly at epoch: 258.9848°
orbit number at epoch: 6391

The dashed part of the orbit path shows where the satellite is in the earth's shadow,  

DLR